www.pogodaiklimat.ru

Погода и климат >> Архив погоды >> Россия >> город Санкт-Петербург >> Воейково


ПОГОДА в Воейково

  • Прогноз погоды в Воейково
  • Монитор погоды в Воейково

АРХИВ ПОГОДЫ в Воейково

Время (UTC), дата Ветер
(напр.,м/с)
 
Видим.   Явления Облачность Т
(С)
Тd
(С)
f
(%)
Тe
(С)
Тes
(С)
Комфортность P
(гПа)
Po
(гПа)
Тmin
(С)
Tmax
(С)
R
(мм)
R24
(мм)
S
(см)
00 13.09 Ю 2 20 км 9/0 2000 м
[Ac trans Ci fib]
+12.1 +10.2 88 +11 +11 1014.3 1005.0
03 13.09 Ю 2 20 км 10/8 420 м
[Cb cap Ac trans]
+12.1 +10.6 91 +11 +11 1013.0 1003.8 +11.6 0.5
06 13.09 Ю 4 20 км слаб. ливневой дождь 10/10 360 м
[Cb cap]
+13.0 +11.3 89 +11 +11 1011.8 1002.6 +11.6 0.0
09 13.09 Ю 4 20 км в посл. час ливневой дождь 10/10 270 м
[Frnb]
+13.7 +12.3 91 +12 +12 1010.5 1001.3
12 13.09 Ю 3 20 км {ливн. осадки} 8/8 420 м
[Frnb Ac trans]
+14.0 +11.4 84 +13 +14 1009.0 999.8
15 13.09 Ю 2 20 км слаб. ливневой дождь 10/8 600 м
[Cb cap Ac trans]
+13.1 +10.8 86 +12 +12 1007.3 998.1 12
18 13.09 З 1 20 км {ливн. осадки} 10/4 1000 м
[Sc diur, vesp Ac As]
+10.8 +9.4 91 +10 +10 1006.1 996.8 +10.8 13
21 13.09 З 1 20 км 10/0 2000 м
[Ac und]
+10.6 +9.6 94 +10 +10 1006.1 996.8
00 14.09 З 1 20 км 3/0 2000 м
[Ac trans]
+8.7 +7.3 91 +8 +8 1007.9 998.6
03 14.09 З 2 20 км 8/3 1500 м
[Cu med, cong Ac trans]
+8.3 +6.2 87 +6 +6 1008.9 999.6 +8.0 1
06 14.09 З 2 20 км ясно +10.1 +6.8 80 +9 +10 1010.3 1000.9 +8.0
09 14.09 З 3
{11}
20 км 1/1 1000 м
[Cu hum]
+13.4 +3.4 51 +12 +17 1011.2 1002.0
12 14.09 З 3
{11}
20 км 6/6 1000 м
[Cu hum]
+12.9 +3.5 53 +12 +13 1011.9 1002.7
15 14.09 З 2
{10}
20 км 8/8 1000 м
[Cu med, cong]
+11.9 +2.9 54 +11 +11 1012.0 1002.8
18 14.09 З 1 20 км 1/1 1000 м
[Cu hum]
+8.3 +3.0 69 +8 +8 1012.8 1003.4 +14.1
21 14.09 З 1 20 км ясно +5.7 +2.5 80 +5 +5 1013.4 1003.9
00 15.09 ЮЗ 1 10 км ясно +4.0 +2.8 92 +2 +2 1013.0 1003.5
03 15.09 Ю 1 10 км 1/1 1000 м
[Cu hum]
+5.1 +4.4 95 +4 +4 1011.8 1002.3 +3.4
06 15.09 Ю 3 20 км 10/0 2000 м
[Ac As]
+7.0 +5.9 93 +4 +4 1009.1 999.7 +3.4
09 15.09 Ю 3
{10}
10 км слаб. дождь 10/0 2000 м
[As op]
+7.9 +5.7 86 +5 +6 1005.1 995.8
12 15.09 Ю 4
{10}
4000 м ливневой дождь 10/9 210 м
[Cb cap As op]
+8.1 +7.0 93 +5 +5 998.2 988.9
15 15.09 Ю 5
{10}
4000 м ливневой дождь 10/10 180 м
[Cb cap]
+9.3 +8.4 94 +6 +6 991.1 981.9 8
18 15.09 ЮЗ 5-11
{14}
10 км слаб. ливневой дождь 10/10 210 м
[Cb cap]
+10.4 +8.8 90 +7 +7 987.8 978.7 +10.4 13
21 15.09 ЮЗ 2
{11}
10 км слаб. ливневой дождь 10/10 660 м
[Cb cap]
+9.6 +8.2 91 +8 +8 988.3 979.2
00 16.09 Ю 3 20 км {ливн. осадки} 8/8 1000 м
[Sc]
+8.6 +7.5 93 +6 +6 988.0 978.9
03 16.09 Ю 3 20 км в посл. час ливневой дождь 4/4 300 м
[Frnb]
+7.9 +6.7 92 +5 +5 987.4 978.3 +7.9 12
06 16.09 ЮЗ 3 10 км слаб. ливневой дождь 9/9 1000 м
[Cb cap]
+9.2 +7.5 89 +7 +7 986.7 977.6 +7.9 7
09 16.09 ЮЗ 4-10
{10}
20 км в посл. час ливневой дождь 9/9 1410 м
[Cb cap]
+11.3 +7.1 75 +9 +9 986.7 977.6
12 16.09 З 3-10
{15}
20 км {ливн. осадки} 10/9 800 м
[Cb cap Ac As]
+10.6 +5.6 71 +9 +9 987.7 978.6
15 16.09 З 1
{10}
10 км слаб. ливневой дождь 10/9 400 м
[Cb cap Ac trans]
+9.0 +7.1 88 +8 +8 990.2 981.0 4
18 16.09 З 1 10 км слаб. ливневой дождь 10/4 300 м
[Cb cap Ac trans]
+7.5 +6.4 93 +6 +6 992.0 982.8 +11.8 4
21 16.09 З 1 20 км {ливн. осадки} 10/0 2000 м
[Ac und]
+7.0 +5.7 91 +6 +6 992.8 983.6
00 17.09 З 1 20 км {ливн. осадки} 9/0 2000 м
[Ac und Ci fib]
+6.3 +4.8 90 +5 +5 993.0 983.7
03 17.09 ЮЗ 1 20 км 10/8 1260 м
[Sc Ac trans]
+5.8 +4.8 93 +5 +5 993.1 983.8 +5.5 1
06 17.09 З 2 20 км {ливн. осадки} 10/10 210 м
[Frnb]
+6.8 +5.6 92 +4 +4 993.7 984.4 +5.5 0.0
09 17.09 З 2 10 км 10/10 240 м
[Frnb]
+7.9 +6.3 90 +6 +6 994.7 985.5
12 17.09 З 1 20 км в посл. час ливневой дождь 9/9 660 м
[Cb cap]
+9.7 +6.4 80 +9 +10 995.5 986.3
15 17.09 СЗ 1 10 км слаб. ливневой дождь 10/10 660 м
[Cb cap]
+9.3 +6.6 83 +9 +9 996.0 986.8 0.4
18 17.09 штиль 0 20 км {ливн. осадки} 10/6 1200 м
[Sc Ac trans]
+7.1 +6.4 95 +6 +6 996.6 987.3 +10.9 1
21 17.09 СЗ 1 10 км 9/0 2000 м
[Ac trans]
+7.0 +6.2 95 +6 +6 996.8 987.5
00 18.09 СЗ 2 10 км 9/3 1500 м
[Sc Ac trans]
+6.3 +5.5 95 +4 +4 997.2 987.9
03 18.09 СЗ 2 20 км 1/0
[]
+5.9 +4.8 93 +3 +3 997.8 988.5 +5.8 0.6
06 18.09 С 2 10 км слаб. ливневой дождь 10/8 300 м
[Cb cap As op]
+6.7 +6.0 95 +4 +4 999.2 989.8 +5.4 3
09 18.09 С 2 20 км {ливн. осадки} 9/5 540 м
[Sc Ac trans]
+8.1 +6.9 92 +6 +7 1001.1 991.8
12 18.09 С 3 20 км в посл. час ливневой дождь 9/9 600 м
[Cb cap Ac trans Ci fib]
+9.2 +4.4 72 +7 +7 1002.8 993.5
15 18.09 С 3
{10}
20 км 8/4 1500 м
[Sc Ac trans]
+8.4 +2.8 68 +6 +6 1004.7 995.4 11
18 18.09 С 3 20 км 6/0 2000 м
[Ac trans]
+5.8 +1.5 74 +3 +3 1006.3 996.9 +10.7 8
21 18.09 СЗ 2 20 км 6/0 2000 м
[Ac trans]
+4.8 +1.5 79 +2 +2 1007.4 997.9
00 19.09 З 1 20 км 9/0 2000 м
[Ac trans Ci fib]
+2.7 +1.2 90 +1 +1 1008.7 999.1
03 19.09 СЗ 1 20 км 8/0 2000 м
[Ac trans]
+3.4 +1.1 85 +2 +2 1009.7 1000.2 +2.2
06 19.09 СЗ 2 20 км 3/0 2000 м
[Ac trans Ci fib]
+6.1 +1.8 74 +4 +5 1011.2 1001.7 +2.2
09 19.09 С 2 20 км 9/3 600 м
[Cb cap Ac trans Cc]
+9.4 +0.3 53 +8 +10 1012.5 1003.2
12 19.09 СЗ 2 20 км 9/3 600 м
[Cu med, cong Ac trans Ci fib]
+8.6 +0.3 56 +7 +9 1013.4 1004.0
15 19.09 штиль 0 20 км 9/1 600 м
[Cu hum As trans Cs]
+8.2 +2.0 65 +8 +8 1013.3 1003.9
18 19.09 штиль 0 20 км 9/0 2000 м
[Ac trans]
+4.1 +2.0 86 +3 +3 1013.5 1004.0 +9.6
21 19.09 Ю 1 20 км 8/0 2000 м
[Ac trans Ci fib]
+3.2 +0.4 82 +2 +2 1013.0 1003.4

 

Местоположение метеостанции Воейково (город Санкт-Петербург, Россия): широта 59.95 долгота 30.70 высота над уровнем моря 75 м.

В архиве по умолчанию представлена погода в Воейково за последнюю неделю. Архивные данные за месяц целиком и за предыдущие месяцы, начиная с января 2011 года, Вы можете получить, выбрав интересующий диапазон дат из раскрывающегося списка и нажав кнопку "Ввод!".


*Определитесь, кто Вы:
робот инопланетянин человек

Внимание! Время в таблицах - всемирное. Для получения местного времени необходимо прибавить поправку, которая равна 3 ч.

Смотрите также архив погоды в соседних городах и на ближайших метеорологических станциях:

Погода в Шлиссельбурге (Ленинградская область, Россия) (17 км)
Погода в Санкт-Петербурге (город Санкт-Петербург, Россия) (22 км)
Погода в Лисьем Носу (город Санкт-Петербург, Россия) (41 км)
Погода в Ломоносове (город Санкт-Петербург, Россия) (51 км)
Погода в Кронштадте (город Санкт-Петербург, Россия) (52 км)
Погода в Рощино (Ленинградская область, Россия) (68 км)
Погода в Сосново (Ленинградская область, Россия) (70 км)
Погода в Любани (Ленинградская область, Россия) (73 км)
Погода в Белогорке (Ленинградская область, Россия) (74 км)
Погода в Шепелево (Ленинградская область, Россия) (80 км)

Пояснения к столбцам:

Ветер - указаны скорость ветра в м/с - средняя за 10 мин, порывы в срок и между сроками (в фигурных скобках) и направление, откуда дует ветер: С - северный, СВ - северо-восточный, В - восточный, ЮВ - юго-восточный, Ю - южный, ЮЗ - юго-западный, З - западный, СЗ - северо-западный.
Видимость - горизонтальная дальность видимости в метрах или километрах. При видимости от 1 до 10 км при отсутствии осадков обычно наблюдается дымка, при ухудшении видимости до 1 км и менее - туман. В сухую погоду видимость может ухудшаться дымом, пылью или мглою.
Явления - указаны атмосферные явления, наблюдавшиеся в срок или в последний час перед сроком; фигурными скобками обозначены явления, наблюдавшиеся между сроками (за 1-3 часа до срока); квадратными скобками обозначены град или гололедные отложения с указанием их диаметра в мм.
Облачность - указаны через наклонную черту общая и нижняя облачность в баллах и высота нижней границы облаков в метрах; квадратными скобками обозначены формы облаков: Ci - перистые, Cs - перисто-слоистые, Cc - перисто-кучевые, Ac - высококучевые, As - высокослоистые, Sc - слоисто-кучевые, Ns - слоисто-дождевые, Cu - кучевые, Cb - кучево-дождевые. Подробнее классификацию облаков см. в Атласе облаков (PDF).
T - Температура воздуха - температура, измеренная на высоте 2 м над землей.
Td - Температура точки росы - температура, при понижении до которой содержащийся в воздухе водяной пар достигнет насыщения.
f - Относительная влажность воздуха - влажноcть воздуха, измеренная на высоте 2 м над землей.
Te - Эффективная температура - температура, которую ощущает одетый по сезону человек в тени. Характеристика душности погоды. При расчете учитывается влияние влажности воздуха и скорости ветра на теплоощущения человека.
Tes - Эффективная температура на солнце - температура, которую ощущает человек, с поправкой на солнечный нагрев. Характеристика знойности погоды. Зависит от высоты солнца над горизонтом, облачности и скорости ветра. Ночью, в пасмурную погоду, а также при ветре 12 м/с и более поправка равна нулю.
P - Атмосферное давление - приведенное к уровню моря атмосферное давление.
Po - Атмосферное давление - измеренное на уровне метеостанции атмосферное давление.
Tmin - Минимальная температура - минимум температуры воздуха на высоте 2 м над землей.
Tmax - Максимальная температура - максимум температуры воздуха на высоте 2 м над землей.
R - Количество осадков - Количество выпавших осадков за период времени, мм. При наведении курсора мыши на число - период времени, за который выпало указанное количество осадков.
R24 - Количество осадков - Количество выпавших осадков за 24 часа, мм.
S - Снежный покров - Высота снежного покрова, см. При наведении курсора мыши на число - состояние снежного покрова и степень покрытия местности в баллах.